Year,Month,Day,Hour,Minute,Value (Times are PST for temperature in C)
2019,04,01,00,00,7.30
2019,04,01,00,01,7.30
2019,04,01,00,02,7.30
2019,04,01,00,03,7.40
2019,04,01,00,04,7.40
2019,04,01,00,05,7.50
2019,04,01,00,06,7.50
2019,04,01,00,07,7.50
2019,04,01,00,08,7.50
2019,04,01,00,09,7.60
2019,04,01,00,10,7.60
2019,04,01,00,11,7.50
2019,04,01,00,12,7.50
2019,04,01,00,13,7.50
2019,04,01,00,14,7.40
2019,04,01,00,15,7.40
2019,04,01,00,16,7.30
2019,04,01,00,17,7.20
2019,04,01,00,18,7.20
2019,04,01,00,19,7.10
2019,04,01,00,20,7.10
2019,04,01,00,21,7.00
2019,04,01,00,22,7.00
2019,04,01,00,23,6.90
2019,04,01,00,24,6.90
2019,04,01,00,25,6.80
2019,04,01,00,26,6.80
2019,04,01,00,27,6.80
2019,04,01,00,28,6.80
2019,04,01,00,29,6.80
2019,04,01,00,30,6.90
2019,04,01,00,31,6.90
2019,04,01,00,32,6.90
2019,04,01,00,33,7.00
2019,04,01,00,34,7.00
2019,04,01,00,35,7.10
2019,04,01,00,36,7.10
2019,04,01,00,37,7.20
2019,04,01,00,38,7.20
2019,04,01,00,39,7.30
2019,04,01,00,40,7.30
2019,04,01,00,41,7.30
2019,04,01,00,42,7.40
2019,04,01,00,43,7.40
2019,04,01,00,44,7.40
2019,04,01,00,45,7.40
2019,04,01,00,46,7.40
2019,04,01,00,47,7.40
2019,04,01,00,48,7.30
2019,04,01,00,49,7.30
2019,04,01,00,50,7.30
2019,04,01,00,51,7.20
2019,04,01,00,52,7.20
2019,04,01,00,53,7.20
2019,04,01,00,54,7.20
2019,04,01,00,55,7.20
2019,04,01,00,56,7.20
2019,04,01,00,57,7.20
2019,04,01,00,58,7.20
2019,04,01,00,59,7.20
2019,04,01,01,00,7.20
2019,04,01,01,01,7.30
2019,04,01,01,02,7.30
2019,04,01,01,03,7.30
2019,04,01,01,04,7.30
2019,04,01,01,05,7.30
2019,04,01,01,06,7.30
2019,04,01,01,07,7.30
2019,04,01,01,08,7.30
2019,04,01,01,09,7.30
2019,04,01,01,10,7.30
2019,04,01,01,11,7.30
2019,04,01,01,12,7.30
2019,04,01,01,13,7.30
2019,04,01,01,14,7.30
2019,04,01,01,15,7.30
2019,04,01,01,16,7.30
2019,04,01,01,17,7.30
2019,04,01,01,18,7.30
2019,04,01,01,19,7.30
2019,04,01,01,20,7.30
2019,04,01,01,21,7.30
2019,04,01,01,22,7.30
2019,04,01,01,23,7.30
2019,04,01,01,24,7.30
2019,04,01,01,25,7.20
2019,04,01,01,26,7.20
2019,04,01,01,27,7.10
2019,04,01,01,28,7.10
2019,04,01,01,29,7.10
2019,04,01,01,30,7.00
2019,04,01,01,31,7.00
2019,04,01,01,32,7.00
2019,04,01,01,33,7.00
2019,04,01,01,34,6.90
2019,04,01,01,35,6.90
2019,04,01,01,36,6.90
2019,04,01,01,37,6.90
2019,04,01,01,38,6.90
2019,04,01,01,39,6.90
2019,04,01,01,40,6.90
2019,04,01,01,41,6.80
2019,04,01,01,42,6.90
2019,04,01,01,43,6.90
2019,04,01,01,44,6.90
2019,04,01,01,45,7.00
2019,04,01,01,46,7.00
2019,04,01,01,47,7.10
2019,04,01,01,48,7.10
2019,04,01,01,49,7.10
2019,04,01,01,50,7.20
2019,04,01,01,51,7.20
2019,04,01,01,52,7.20
2019,04,01,01,53,7.30
2019,04,01,01,54,7.30
2019,04,01,01,55,7.30
2019,04,01,01,56,7.30
2019,04,01,01,57,7.30
2019,04,01,01,58,7.30
2019,04,01,01,59,7.40
2019,04,01,02,00,7.40
2019,04,01,02,01,7.50
2019,04,01,02,02,7.50
2019,04,01,02,03,7.60
2019,04,01,02,04,7.60
2019,04,01,02,05,7.70
2019,04,01,02,06,7.70
2019,04,01,02,07,7.70
2019,04,01,02,08,7.80
2019,04,01,02,09,7.80
2019,04,01,02,10,7.80
2019,04,01,02,11,7.80
2019,04,01,02,12,7.80
2019,04,01,02,13,7.80
2019,04,01,02,14,7.90
2019,04,01,02,15,7.90
2019,04,01,02,16,7.80
2019,04,01,02,17,7.80
2019,04,01,02,18,7.80
2019,04,01,02,19,7.80
2019,04,01,02,20,7.70
2019,04,01,02,21,7.70
2019,04,01,02,22,7.70
2019,04,01,02,23,7.70
2019,04,01,02,24,7.70
2019,04,01,02,25,7.70
2019,04,01,02,26,7.70
2019,04,01,02,27,7.80
2019,04,01,02,28,7.80
2019,04,01,02,29,7.80
2019,04,01,02,30,7.80
2019,04,01,02,31,7.80
2019,04,01,02,32,7.90
2019,04,01,02,33,7.90
2019,04,01,02,34,7.90
2019,04,01,02,35,7.90
2019,04,01,02,36,7.90
2019,04,01,02,37,7.90
2019,04,01,02,38,7.90
2019,04,01,02,39,7.90
2019,04,01,02,40,7.90
2019,04,01,02,41,7.90
2019,04,01,02,42,7.90
2019,04,01,02,43,8.00
2019,04,01,02,44,8.00
2019,04,01,02,45,8.00
2019,04,01,02,46,8.10
2019,04,01,02,47,8.10
2019,04,01,02,48,8.10
2019,04,01,02,49,8.10
2019,04,01,02,50,8.10
2019,04,01,02,51,8.10
2019,04,01,02,52,8.10
2019,04,01,02,53,8.10
2019,04,01,02,54,8.10
2019,04,01,02,55,8.10
2019,04,01,02,56,8.10
2019,04,01,02,57,8.10
2019,04,01,02,58,8.00
2019,04,01,02,59,8.00
2019,04,01,03,00,8.00
2019,04,01,03,01,8.00
2019,04,01,03,02,8.00
2019,04,01,03,03,7.90
2019,04,01,03,04,7.90
2019,04,01,03,05,7.90
2019,04,01,03,06,7.90
2019,04,01,03,07,7.80
2019,04,01,03,08,7.80
2019,04,01,03,09,7.80
2019,04,01,03,10,7.70
2019,04,01,03,11,7.70
2019,04,01,03,12,7.70
2019,04,01,03,13,7.60
2019,04,01,03,14,7.50
2019,04,01,03,15,7.40
2019,04,01,03,16,7.40
2019,04,01,03,17,7.30
2019,04,01,03,18,7.30
2019,04,01,03,19,7.20
2019,04,01,03,20,7.20
2019,04,01,03,21,7.20
2019,04,01,03,22,7.10
2019,04,01,03,23,7.10
2019,04,01,03,24,7.10
2019,04,01,03,25,7.00
2019,04,01,03,26,7.00
2019,04,01,03,27,6.90
2019,04,01,03,28,6.90
2019,04,01,03,29,6.80
2019,04,01,03,30,6.80
2019,04,01,03,31,6.80
2019,04,01,03,32,6.80
2019,04,01,03,33,6.80
2019,04,01,03,34,6.80
2019,04,01,03,35,6.80
2019,04,01,03,36,6.80
2019,04,01,03,37,6.80
2019,04,01,03,38,6.80
2019,04,01,03,39,6.80
2019,04,01,03,40,6.80
2019,04,01,03,41,6.80
2019,04,01,03,42,6.80
2019,04,01,03,43,6.80
2019,04,01,03,44,6.80
2019,04,01,03,45,6.80
2019,04,01,03,46,6.80
2019,04,01,03,47,6.80
2019,04,01,03,48,6.80
2019,04,01,03,49,6.80
2019,04,01,03,50,6.80
2019,04,01,03,51,6.80
2019,04,01,03,52,6.80
2019,04,01,03,53,6.80
2019,04,01,03,54,6.80
2019,04,01,03,55,6.80
2019,04,01,03,56,6.80
2019,04,01,03,57,6.80
2019,04,01,03,58,6.80
2019,04,01,03,59,6.80
2019,04,01,04,00,6.80
2019,04,01,04,01,6.70
2019,04,01,04,02,6.70
2019,04,01,04,03,6.70
2019,04,01,04,04,6.60
2019,04,01,04,05,6.60
2019,04,01,04,06,6.50
2019,04,01,04,07,6.50
2019,04,01,04,08,6.40
2019,04,01,04,09,6.40
2019,04,01,04,10,6.40
2019,04,01,04,11,6.30
2019,04,01,04,12,6.30
2019,04,01,04,13,6.30
2019,04,01,04,14,6.20
2019,04,01,04,15,6.20
2019,04,01,04,16,6.10
2019,04,01,04,17,6.10
2019,04,01,04,18,6.10
2019,04,01,04,19,6.10
2019,04,01,04,20,6.10
2019,04,01,04,21,6.10
2019,04,01,04,22,6.10
2019,04,01,04,23,6.10
2019,04,01,04,24,6.10
2019,04,01,04,25,6.10
2019,04,01,04,26,6.10
2019,04,01,04,27,6.10
2019,04,01,04,28,6.10
2019,04,01,04,29,6.10
2019,04,01,04,30,6.10
2019,04,01,04,31,6.10
2019,04,01,04,32,6.10
2019,04,01,04,33,6.10
2019,04,01,04,34,6.10
2019,04,01,04,35,6.10
2019,04,01,04,36,6.20
2019,04,01,04,37,6.20
2019,04,01,04,38,6.20
2019,04,01,04,39,6.20
2019,04,01,04,40,6.20
2019,04,01,04,41,6.20
2019,04,01,04,42,6.30
2019,04,01,04,43,6.30
2019,04,01,04,44,6.40
2019,04,01,04,45,6.40
2019,04,01,04,46,6.50
2019,04,01,04,47,6.60
2019,04,01,04,48,6.70
2019,04,01,04,49,6.70
2019,04,01,04,50,6.70
2019,04,01,04,51,6.80
2019,04,01,04,52,6.80
2019,04,01,04,53,6.70
2019,04,01,04,54,6.70
2019,04,01,04,55,6.70
2019,04,01,04,56,6.60
2019,04,01,04,57,6.60
2019,04,01,04,58,6.50
2019,04,01,04,59,6.40
2019,04,01,05,00,6.30
2019,04,01,05,01,6.20
2019,04,01,05,02,6.20
2019,04,01,05,03,6.10
2019,04,01,05,04,6.00
2019,04,01,05,05,5.90
2019,04,01,05,06,5.90
2019,04,01,05,07,5.90
2019,04,01,05,08,5.90
2019,04,01,05,09,5.80
2019,04,01,05,10,5.80
2019,04,01,05,11,5.80
2019,04,01,05,12,5.80
2019,04,01,05,13,5.80
2019,04,01,05,14,5.80
2019,04,01,05,15,5.80
2019,04,01,05,16,5.80
2019,04,01,05,17,5.80
2019,04,01,05,18,5.70
2019,04,01,05,19,5.70
2019,04,01,05,20,5.70
2019,04,01,05,21,5.70
2019,04,01,05,22,5.70
2019,04,01,05,23,5.70
2019,04,01,05,24,5.70
2019,04,01,05,25,5.70
2019,04,01,05,26,5.80
2019,04,01,05,27,5.90
2019,04,01,05,28,6.00
2019,04,01,05,29,6.10
2019,04,01,05,30,6.20
2019,04,01,05,31,6.30
2019,04,01,05,32,6.40
2019,04,01,05,33,6.50
2019,04,01,05,34,6.60
2019,04,01,05,35,6.60
2019,04,01,05,36,6.60
2019,04,01,05,37,6.60
2019,04,01,05,38,6.50
2019,04,01,05,39,6.50
2019,04,01,05,40,6.50
2019,04,01,05,41,6.50
2019,04,01,05,42,6.50
2019,04,01,05,43,6.40
2019,04,01,05,44,6.40
2019,04,01,05,45,6.40
2019,04,01,05,46,6.40
2019,04,01,05,47,6.40
2019,04,01,05,48,6.40
2019,04,01,05,49,6.30
2019,04,01,05,50,6.30
2019,04,01,05,51,6.30
2019,04,01,05,52,6.30
2019,04,01,05,53,6.20
2019,04,01,05,54,6.20
2019,04,01,05,55,6.10
2019,04,01,05,56,6.10
2019,04,01,05,57,6.10
2019,04,01,05,58,6.10
2019,04,01,05,59,6.10
2019,04,01,06,00,6.00
2019,04,01,06,01,6.00
2019,04,01,06,02,6.00
2019,04,01,06,03,6.00
2019,04,01,06,04,6.00
2019,04,01,06,05,6.00
2019,04,01,06,06,5.90
2019,04,01,06,07,5.90
2019,04,01,06,08,5.90
2019,04,01,06,09,5.90
2019,04,01,06,10,5.90
2019,04,01,06,11,5.80
2019,04,01,06,12,5.80
2019,04,01,06,13,5.80
2019,04,01,06,14,5.80
2019,04,01,06,15,5.80
2019,04,01,06,16,5.70
2019,04,01,06,17,5.70
2019,04,01,06,18,5.70
2019,04,01,06,19,5.70
2019,04,01,06,20,5.70
2019,04,01,06,21,5.70
2019,04,01,06,22,5.70
2019,04,01,06,23,5.70
2019,04,01,06,24,5.70
2019,04,01,06,25,5.70
2019,04,01,06,26,5.70
2019,04,01,06,27,5.70
2019,04,01,06,28,5.80
2019,04,01,06,29,5.80
2019,04,01,06,30,5.80
2019,04,01,06,31,5.80
2019,04,01,06,32,5.80
2019,04,01,06,33,5.80
2019,04,01,06,34,5.80
2019,04,01,06,35,5.80
2019,04,01,06,36,5.80
2019,04,01,06,37,5.80
2019,04,01,06,38,5.90
2019,04,01,06,39,5.90
2019,04,01,06,40,5.90
2019,04,01,06,41,5.90
2019,04,01,06,42,5.90
2019,04,01,06,43,5.90
2019,04,01,06,44,5.80
2019,04,01,06,45,5.80
2019,04,01,06,46,5.80
2019,04,01,06,47,5.80
2019,04,01,06,48,5.80
2019,04,01,06,49,5.80
2019,04,01,06,50,5.80
2019,04,01,06,51,5.80
2019,04,01,06,52,5.80
2019,04,01,06,53,5.80
2019,04,01,06,54,5.80
2019,04,01,06,55,5.80
2019,04,01,06,56,5.80
2019,04,01,06,57,5.80
2019,04,01,06,58,5.80
2019,04,01,06,59,5.80
2019,04,01,07,00,5.80
2019,04,01,07,01,5.80
2019,04,01,07,02,5.80
2019,04,01,07,03,5.80
2019,04,01,07,04,5.80
2019,04,01,07,05,5.80
2019,04,01,07,06,5.80
2019,04,01,07,07,5.80
2019,04,01,07,08,5.80
2019,04,01,07,09,5.80
2019,04,01,07,10,5.80
2019,04,01,07,11,5.80
2019,04,01,07,12,5.80
2019,04,01,07,13,5.80
2019,04,01,07,14,5.80
2019,04,01,07,15,5.90
2019,04,01,07,16,5.90
2019,04,01,07,17,5.90
2019,04,01,07,18,6.00
2019,04,01,07,19,6.00
2019,04,01,07,20,6.10
2019,04,01,07,21,6.20
2019,04,01,07,22,6.20
2019,04,01,07,23,6.30
2019,04,01,07,24,6.30
2019,04,01,07,25,6.30
2019,04,01,07,26,6.40
2019,04,01,07,27,6.40
2019,04,01,07,28,6.40
2019,04,01,07,29,6.40
2019,04,01,07,30,6.40
2019,04,01,07,31,6.50
2019,04,01,07,32,6.50
2019,04,01,07,33,6.60
2019,04,01,07,34,6.60
2019,04,01,07,35,6.60
2019,04,01,07,36,6.70
2019,04,01,07,37,6.70
2019,04,01,07,38,6.80
2019,04,01,07,39,6.80
2019,04,01,07,40,6.90
2019,04,01,07,41,6.90
2019,04,01,07,42,7.00
2019,04,01,07,43,7.10
2019,04,01,07,44,7.10
2019,04,01,07,45,7.20
2019,04,01,07,46,7.20
2019,04,01,07,47,7.30
2019,04,01,07,48,7.30
2019,04,01,07,49,7.30
2019,04,01,07,50,7.30
2019,04,01,07,51,7.30
2019,04,01,07,52,7.30
2019,04,01,07,53,7.30
2019,04,01,07,54,7.30
2019,04,01,07,55,7.30
2019,04,01,07,56,7.30
2019,04,01,07,57,7.20
2019,04,01,07,58,7.20
2019,04,01,07,59,7.20
2019,04,01,08,00,7.20
2019,04,01,08,01,7.20
2019,04,01,08,02,7.20
2019,04,01,08,03,7.20
2019,04,01,08,04,7.20
2019,04,01,08,05,7.20
2019,04,01,08,06,7.20
2019,04,01,08,07,7.20
2019,04,01,08,08,7.20
2019,04,01,08,09,7.20
2019,04,01,08,10,7.20
2019,04,01,08,11,7.20
2019,04,01,08,12,7.20
2019,04,01,08,13,7.20
2019,04,01,08,14,7.30
2019,04,01,08,15,7.30
2019,04,01,08,16,7.30
2019,04,01,08,17,7.30
2019,04,01,08,18,7.30
2019,04,01,08,19,7.40
2019,04,01,08,20,7.40
2019,04,01,08,21,7.40
2019,04,01,08,22,7.50
2019,04,01,08,23,7.50
2019,04,01,08,24,7.60
2019,04,01,08,25,7.70
2019,04,01,08,26,7.80
2019,04,01,08,27,7.80
2019,04,01,08,28,7.90
2019,04,01,08,29,8.00
2019,04,01,08,30,8.10
2019,04,01,08,31,8.20
2019,04,01,08,32,8.20
2019,04,01,08,33,8.30
2019,04,01,08,34,8.40
2019,04,01,08,35,8.40
2019,04,01,08,36,8.50
2019,04,01,08,37,8.60
2019,04,01,08,38,8.60
2019,04,01,08,39,8.70
2019,04,01,08,40,8.80
2019,04,01,08,41,8.90
2019,04,01,08,42,8.90
2019,04,01,08,43,9.00
2019,04,01,08,44,9.00
2019,04,01,08,45,9.10
2019,04,01,08,46,9.10
2019,04,01,08,47,9.20
2019,04,01,08,48,9.20
2019,04,01,08,49,9.30
2019,04,01,08,50,9.30
2019,04,01,08,51,9.30
2019,04,01,08,52,9.30
2019,04,01,08,53,9.40
2019,04,01,08,54,9.40
2019,04,01,08,55,9.40
2019,04,01,08,56,9.50
2019,04,01,08,57,9.50
2019,04,01,08,58,9.60
2019,04,01,08,59,9.60
2019,04,01,09,00,9.60
2019,04,01,09,01,9.70
2019,04,01,09,02,9.70
2019,04,01,09,03,9.70
2019,04,01,09,04,9.80
2019,04,01,09,05,9.80
2019,04,01,09,06,9.90
2019,04,01,09,07,9.90
2019,04,01,09,08,10.00
2019,04,01,09,09,10.00
2019,04,01,09,10,10.10
2019,04,01,09,11,10.10
2019,04,01,09,12,10.20
2019,04,01,09,13,10.20
2019,04,01,09,14,10.30
2019,04,01,09,15,10.30
2019,04,01,09,16,10.30
2019,04,01,09,17,10.40
2019,04,01,09,18,10.50
2019,04,01,09,19,10.70
2019,04,01,09,20,10.80
2019,04,01,09,21,10.90
2019,04,01,09,22,11.00
2019,04,01,09,23,11.10
2019,04,01,09,24,11.20
2019,04,01,09,25,11.30
2019,04,01,09,26,11.30
2019,04,01,09,27,11.30
2019,04,01,09,28,11.20
2019,04,01,09,29,11.20
2019,04,01,09,30,11.10
2019,04,01,09,31,11.10
2019,04,01,09,32,11.10
2019,04,01,09,33,11.20
2019,04,01,09,34,11.20
2019,04,01,09,35,11.20
2019,04,01,09,36,11.30
2019,04,01,09,37,11.30
2019,04,01,09,38,11.30
2019,04,01,09,39,11.40
2019,04,01,09,40,11.40
2019,04,01,09,41,11.40
2019,04,01,09,42,11.40
2019,04,01,09,43,11.40
2019,04,01,09,44,11.50
2019,04,01,09,45,11.50
2019,04,01,09,46,11.50
2019,04,01,09,47,11.50
2019,04,01,09,48,11.40
2019,04,01,09,49,11.40
2019,04,01,09,50,11.40
2019,04,01,09,51,11.40
2019,04,01,09,52,11.40
2019,04,01,09,53,11.40
2019,04,01,09,54,11.50
2019,04,01,09,55,11.50
2019,04,01,09,56,11.60
2019,04,01,09,57,11.70
2019,04,01,09,58,11.70
2019,04,01,09,59,11.70
2019,04,01,10,00,11.80
2019,04,01,10,01,11.80
2019,04,01,10,02,11.80
2019,04,01,10,03,11.80
2019,04,01,10,04,11.80
2019,04,01,10,05,11.80
2019,04,01,10,06,11.90
2019,04,01,10,07,11.90
2019,04,01,10,08,11.90
2019,04,01,10,09,11.90
2019,04,01,10,10,11.90
2019,04,01,10,11,11.90
2019,04,01,10,12,11.90
2019,04,01,10,13,11.90
2019,04,01,10,14,12.00
2019,04,01,10,15,12.00
2019,04,01,10,16,12.00
2019,04,01,10,17,12.00
2019,04,01,10,18,12.10
2019,04,01,10,19,12.10
2019,04,01,10,20,12.20
2019,04,01,10,21,12.20
2019,04,01,10,22,12.20
2019,04,01,10,23,12.20
2019,04,01,10,24,12.30
2019,04,01,10,25,12.30
2019,04,01,10,26,12.30
2019,04,01,10,27,12.30
2019,04,01,10,28,12.30
2019,04,01,10,29,12.40
2019,04,01,10,30,12.40
2019,04,01,10,31,12.40
2019,04,01,10,32,12.50
2019,04,01,10,33,12.50
2019,04,01,10,34,12.50
2019,04,01,10,35,12.60
2019,04,01,10,36,12.60
2019,04,01,10,37,12.50
2019,04,01,10,38,12.50
2019,04,01,10,39,12.50
2019,04,01,10,40,12.60
2019,04,01,10,41,12.60
2019,04,01,10,42,12.60
2019,04,01,10,43,12.70
2019,04,01,10,44,12.70
2019,04,01,10,45,12.80
2019,04,01,10,46,12.80
2019,04,01,10,47,12.90
2019,04,01,10,48,12.90
2019,04,01,10,49,12.90
2019,04,01,10,50,12.90
2019,04,01,10,51,12.90
2019,04,01,10,52,12.90
2019,04,01,10,53,12.90
2019,04,01,10,54,12.80
2019,04,01,10,55,12.80
2019,04,01,10,56,12.90
2019,04,01,10,57,12.90
2019,04,01,10,58,13.00
2019,04,01,10,59,13.00
2019,04,01,11,00,13.00
2019,04,01,11,01,13.10
2019,04,01,11,02,13.10
2019,04,01,11,03,13.10
2019,04,01,11,04,13.10
2019,04,01,11,05,13.10
2019,04,01,11,06,13.10
2019,04,01,11,07,13.10
2019,04,01,11,08,13.20
2019,04,01,11,09,13.20
2019,04,01,11,10,13.30
2019,04,01,11,11,13.30
2019,04,01,11,12,13.30
2019,04,01,11,13,13.30
2019,04,01,11,14,13.40
2019,04,01,11,15,13.40
2019,04,01,11,16,13.40
2019,04,01,11,17,13.40
2019,04,01,11,18,13.50
2019,04,01,11,19,13.50
2019,04,01,11,20,13.50
2019,04,01,11,21,13.50
2019,04,01,11,22,13.60
2019,04,01,11,23,13.70
2019,04,01,11,24,13.70
2019,04,01,11,25,13.70
2019,04,01,11,26,13.80
2019,04,01,11,27,13.80
2019,04,01,11,28,13.90
2019,04,01,11,29,13.90
2019,04,01,11,30,13.90
2019,04,01,11,31,13.90
2019,04,01,11,32,13.90
2019,04,01,11,33,14.00
2019,04,01,11,34,14.00
2019,04,01,11,35,14.10
2019,04,01,11,36,14.10
2019,04,01,11,37,14.20
2019,04,01,11,38,14.30
2019,04,01,11,39,14.40
2019,04,01,11,40,14.50
2019,04,01,11,41,14.50
2019,04,01,11,42,14.60
2019,04,01,11,43,14.60
2019,04,01,11,44,14.60
2019,04,01,11,45,14.60
2019,04,01,11,46,14.60
2019,04,01,11,47,14.60
2019,04,01,11,48,14.60
2019,04,01,11,49,14.70
2019,04,01,11,50,14.70
2019,04,01,11,51,14.60
2019,04,01,11,52,14.60
2019,04,01,11,53,14.70
2019,04,01,11,54,14.70
2019,04,01,11,55,14.70
2019,04,01,11,56,14.70
2019,04,01,11,57,14.80
2019,04,01,11,58,14.90
2019,04,01,11,59,14.90
2019,04,01,12,00,15.00
2019,04,01,12,01,15.20
2019,04,01,12,02,15.30
2019,04,01,12,03,15.40
2019,04,01,12,04,15.40
2019,04,01,12,05,15.30
2019,04,01,12,06,15.30
2019,04,01,12,07,15.20
2019,04,01,12,08,15.10
2019,04,01,12,09,15.10
2019,04,01,12,10,15.10
2019,04,01,12,11,15.10
2019,04,01,12,12,15.10
2019,04,01,12,13,15.10
2019,04,01,12,14,15.10
2019,04,01,12,15,15.10
2019,04,01,12,16,15.10
2019,04,01,12,17,15.20
2019,04,01,12,18,15.20
2019,04,01,12,19,15.20
2019,04,01,12,20,15.20
2019,04,01,12,21,15.20
2019,04,01,12,22,15.20
2019,04,01,12,23,15.20
2019,04,01,12,24,15.20
2019,04,01,12,25,15.20
2019,04,01,12,26,15.20
2019,04,01,12,27,15.20
2019,04,01,12,28,15.30
2019,04,01,12,29,15.30
2019,04,01,12,30,15.30
2019,04,01,12,31,15.30
2019,04,01,12,32,15.30
2019,04,01,12,33,15.30
2019,04,01,12,34,15.30
2019,04,01,12,35,15.40
2019,04,01,12,36,15.40
2019,04,01,12,37,15.40
2019,04,01,12,38,15.40
2019,04,01,12,39,15.40
2019,04,01,12,40,15.50
2019,04,01,12,41,15.60
2019,04,01,12,42,15.60
2019,04,01,12,43,15.70
2019,04,01,12,44,15.70
2019,04,01,12,45,15.70
2019,04,01,12,46,15.70
2019,04,01,12,47,15.70
2019,04,01,12,48,15.80
2019,04,01,12,49,15.80
2019,04,01,12,50,15.70
2019,04,01,12,51,15.70
2019,04,01,12,52,15.70
2019,04,01,12,53,15.80
2019,04,01,12,54,15.80
2019,04,01,12,55,15.80
2019,04,01,12,56,15.80
2019,04,01,12,57,15.90
2019,04,01,12,58,16.00
2019,04,01,12,59,16.00
2019,04,01,13,00,16.00
2019,04,01,13,01,16.00
2019,04,01,13,02,16.00
2019,04,01,13,03,15.90
2019,04,01,13,04,15.90
2019,04,01,13,05,16.00
2019,04,01,13,06,16.20
2019,04,01,13,07,16.30
2019,04,01,13,08,16.30
2019,04,01,13,09,16.30
2019,04,01,13,10,16.40
2019,04,01,13,11,16.40
2019,04,01,13,12,16.40
2019,04,01,13,13,16.40
2019,04,01,13,14,16.40
2019,04,01,13,15,16.40
2019,04,01,13,16,16.40
2019,04,01,13,17,16.40
2019,04,01,13,18,16.30
2019,04,01,13,19,16.30
2019,04,01,13,20,16.30
2019,04,01,13,21,16.20
2019,04,01,13,22,16.20
2019,04,01,13,23,16.20
2019,04,01,13,24,16.20
2019,04,01,13,25,16.20
2019,04,01,13,26,16.10
2019,04,01,13,27,16.20
2019,04,01,13,28,16.20
2019,04,01,13,29,16.30
2019,04,01,13,30,16.40
2019,04,01,13,31,16.50
2019,04,01,13,32,16.70
2019,04,01,13,33,16.70
2019,04,01,13,34,16.70
2019,04,01,13,35,16.70
2019,04,01,13,36,16.60
2019,04,01,13,37,16.50
2019,04,01,13,38,16.40
2019,04,01,13,39,16.30
2019,04,01,13,40,16.20
2019,04,01,13,41,16.20
2019,04,01,13,42,16.20
2019,04,01,13,43,16.20
2019,04,01,13,44,16.20
2019,04,01,13,45,16.20
2019,04,01,13,46,16.20
2019,04,01,13,47,16.30
2019,04,01,13,48,16.20
2019,04,01,13,49,16.30
2019,04,01,13,50,16.30
2019,04,01,13,51,16.40
2019,04,01,13,52,16.40
2019,04,01,13,53,16.40
2019,04,01,13,54,16.40
2019,04,01,13,55,16.40
2019,04,01,13,56,16.40
2019,04,01,13,57,16.40
2019,04,01,13,58,16.40
2019,04,01,13,59,16.30
2019,04,01,14,00,16.30
2019,04,01,14,01,16.30
2019,04,01,14,02,16.40
2019,04,01,14,03,16.50
2019,04,01,14,04,16.50
2019,04,01,14,05,16.60
2019,04,01,14,06,16.70
2019,04,01,14,07,16.80
2019,04,01,14,08,16.80
2019,04,01,14,09,16.80
2019,04,01,14,10,16.70
2019,04,01,14,11,16.80
2019,04,01,14,12,16.80
2019,04,01,14,13,16.80
2019,04,01,14,14,16.90
2019,04,01,14,15,16.90
2019,04,01,14,16,16.80
2019,04,01,14,17,16.80
2019,04,01,14,18,16.80
2019,04,01,14,19,16.70
2019,04,01,14,20,16.70
2019,04,01,14,21,16.80
2019,04,01,14,22,16.80
2019,04,01,14,23,16.80
2019,04,01,14,24,16.80
2019,04,01,14,25,16.80
2019,04,01,14,26,16.80
2019,04,01,14,27,16.80
2019,04,01,14,28,16.70
2019,04,01,14,29,16.70
2019,04,01,14,30,16.70
2019,04,01,14,31,16.70
2019,04,01,14,32,16.70
2019,04,01,14,33,16.70
2019,04,01,14,34,16.60
2019,04,01,14,35,16.60
2019,04,01,14,36,16.60
2019,04,01,14,37,16.60
2019,04,01,14,38,16.60
2019,04,01,14,39,16.60
2019,04,01,14,40,16.60
2019,04,01,14,41,16.60
2019,04,01,14,42,16.60
2019,04,01,14,43,16.70
2019,04,01,14,44,16.70
2019,04,01,14,45,16.60
2019,04,01,14,46,16.60
2019,04,01,14,47,16.60
2019,04,01,14,48,16.70
2019,04,01,14,49,16.80
2019,04,01,14,50,16.80
2019,04,01,14,51,16.80
2019,04,01,14,52,16.90
2019,04,01,14,53,17.00
2019,04,01,14,54,17.10
2019,04,01,14,55,17.10
2019,04,01,14,56,17.20
2019,04,01,14,57,17.20
2019,04,01,14,58,17.20
2019,04,01,14,59,17.30
2019,04,01,15,00,17.40
2019,04,01,15,01,17.50
2019,04,01,15,02,17.60
2019,04,01,15,03,17.60
2019,04,01,15,04,17.60
2019,04,01,15,05,17.60
2019,04,01,15,06,17.60
2019,04,01,15,07,17.60
2019,04,01,15,08,17.60
2019,04,01,15,09,17.60
2019,04,01,15,10,17.60
2019,04,01,15,11,17.60
2019,04,01,15,12,17.60
2019,04,01,15,13,17.60
2019,04,01,15,14,17.60
2019,04,01,15,15,17.60
2019,04,01,15,16,17.50
2019,04,01,15,17,17.50
2019,04,01,15,18,17.40
2019,04,01,15,19,17.40
2019,04,01,15,20,17.40
2019,04,01,15,21,17.30
2019,04,01,15,22,17.30
2019,04,01,15,23,17.30
2019,04,01,15,24,17.20
2019,04,01,15,25,17.20
2019,04,01,15,26,17.20
2019,04,01,15,27,17.10
2019,04,01,15,28,17.10
2019,04,01,15,29,17.10
2019,04,01,15,30,17.10
2019,04,01,15,31,17.10
2019,04,01,15,32,17.10
2019,04,01,15,33,17.20
2019,04,01,15,34,17.30
2019,04,01,15,35,17.30
2019,04,01,15,36,17.30
2019,04,01,15,37,17.30
2019,04,01,15,38,17.30
2019,04,01,15,39,17.30
2019,04,01,15,40,17.30
2019,04,01,15,41,17.40
2019,04,01,15,42,17.40
2019,04,01,15,43,17.40
2019,04,01,15,44,17.40
2019,04,01,15,45,17.40
2019,04,01,15,46,17.40
2019,04,01,15,47,17.30
2019,04,01,15,48,17.30
2019,04,01,15,49,17.30
2019,04,01,15,50,17.30
2019,04,01,15,51,17.30
2019,04,01,15,52,17.30
2019,04,01,15,53,17.30
2019,04,01,15,54,17.40
2019,04,01,15,55,17.40
2019,04,01,15,56,17.40
2019,04,01,15,57,17.40
2019,04,01,15,58,17.40
2019,04,01,15,59,17.40
2019,04,01,16,00,17.40
2019,04,01,16,01,17.40
2019,04,01,16,02,17.40
2019,04,01,16,03,17.40
2019,04,01,16,04,17.40
2019,04,01,16,05,17.40
2019,04,01,16,06,17.30
2019,04,01,16,07,17.30
2019,04,01,16,08,17.30
2019,04,01,16,09,17.30
2019,04,01,16,10,17.30
2019,04,01,16,11,17.20
2019,04,01,16,12,17.30
2019,04,01,16,13,17.30
2019,04,01,16,14,17.30
2019,04,01,16,15,17.30
2019,04,01,16,16,17.40
2019,04,01,16,17,17.40
2019,04,01,16,18,17.50
2019,04,01,16,19,17.50
2019,04,01,16,20,17.60
2019,04,01,16,21,17.60
2019,04,01,16,22,17.60
2019,04,01,16,23,17.60
2019,04,01,16,24,17.60
2019,04,01,16,25,17.60
2019,04,01,16,26,17.70
2019,04,01,16,27,17.70
2019,04,01,16,28,17.80
2019,04,01,16,29,17.80
2019,04,01,16,30,17.90
2019,04,01,16,31,17.90
2019,04,01,16,32,17.90
2019,04,01,16,33,17.90
2019,04,01,16,34,17.90
2019,04,01,16,35,17.90
2019,04,01,16,36,17.90
2019,04,01,16,37,17.90
2019,04,01,16,38,18.00
2019,04,01,16,39,18.00
2019,04,01,16,40,18.10
2019,04,01,16,41,18.00
2019,04,01,16,42,18.00
2019,04,01,16,43,18.00
2019,04,01,16,44,18.00
2019,04,01,16,45,18.00
2019,04,01,16,46,18.00
2019,04,01,16,47,18.10
2019,04,01,16,48,18.10
2019,04,01,16,49,18.20
2019,04,01,16,50,18.20
2019,04,01,16,51,18.20
2019,04,01,16,52,18.20
2019,04,01,16,53,18.20
2019,04,01,16,54,18.20
2019,04,01,16,55,18.20
2019,04,01,16,56,18.20
2019,04,01,16,57,18.20
2019,04,01,16,58,18.20
2019,04,01,16,59,18.20
2019,04,01,17,00,18.20
2019,04,01,17,01,18.30
2019,04,01,17,02,18.30
2019,04,01,17,03,18.30
2019,04,01,17,04,18.30
2019,04,01,17,05,18.30
2019,04,01,17,06,18.30
2019,04,01,17,07,18.30
2019,04,01,17,08,18.30
2019,04,01,17,09,18.30
2019,04,01,17,10,18.20
2019,04,01,17,11,18.30
2019,04,01,17,12,18.30
2019,04,01,17,13,18.30
2019,04,01,17,14,18.30
2019,04,01,17,15,18.30
2019,04,01,17,16,18.30
2019,04,01,17,17,18.40
2019,04,01,17,18,18.40
2019,04,01,17,19,18.40
2019,04,01,17,20,18.40
2019,04,01,17,21,18.40
2019,04,01,17,22,18.40
2019,04,01,17,23,18.30
2019,04,01,17,24,18.30
2019,04,01,17,25,18.40
2019,04,01,17,26,18.40
2019,04,01,17,27,18.40
2019,04,01,17,28,18.50
2019,04,01,17,29,18.60
2019,04,01,17,30,18.60
2019,04,01,17,31,18.60
2019,04,01,17,32,18.50
2019,04,01,17,33,18.50
2019,04,01,17,34,18.50
2019,04,01,17,35,18.50
2019,04,01,17,36,18.40
2019,04,01,17,37,18.40
2019,04,01,17,38,18.40
2019,04,01,17,39,18.40
2019,04,01,17,40,18.40
2019,04,01,17,41,18.40
2019,04,01,17,42,18.40
2019,04,01,17,43,18.30